Previsão horária em Abaclia

Hoje, 30 Setembro, Quarta-feira

Tempo Temperatura Precipitação Vento Pressão Humidade
00:00 +14°C° 0 mm 3 m/s 749 mmHg 86%
01:00 +14°C° 0 mm 3 m/s 749 mmHg 86%
02:00 +14°C° 0 mm 3 m/s 749 mmHg 86%
03:00 +14°C° 0 mm 3 m/s 749 mmHg 84%
04:00 +14°C° 0 mm 3 m/s 749 mmHg 82%
05:00 +14°C° 0 mm 3 m/s 748 mmHg 80%
06:00 +14°C° 0 mm 4 m/s 749 mmHg 75%
07:00 +15°C° 0 mm 4 m/s 749 mmHg 71%
08:00 +15°C° 0 mm 5 m/s 749 mmHg 66%
09:00 +16°C° 0 mm 5 m/s 749 mmHg 63%
10:00 +16°C° 0 mm 5 m/s 749 mmHg 61%
11:00 +18°C° 0 mm 4 m/s 749 mmHg 58%
12:00 +18°C° 0 mm 4 m/s 748 mmHg 57%
13:00 +18°C° 0 mm 4 m/s 748 mmHg 55%
14:00 +18°C° 0 mm 4 m/s 748 mmHg 54%
15:00 +18°C° 0 mm 4 m/s 748 mmHg 53%
16:00 +18°C° 0 mm 3 m/s 748 mmHg 52%
17:00 +19°C° 0 mm 3 m/s 748 mmHg 51%
18:00 +18°C° 0 mm 3 m/s 748 mmHg 55%
19:00 +17°C° 0 mm 3 m/s 748 mmHg 59%
20:00 +15°C° 0 mm 2 m/s 748 mmHg 63%
21:00 +15°C° 0 mm 2 m/s 748 mmHg 64%
22:00 +15°C° 0 mm 2 m/s 748 mmHg 65%
23:00 +14°C° 0 mm 1 m/s 748 mmHg 67%

Amanhã, 1 Outubro, Quinta-feira

Tempo Temperatura Precipitação Vento Pressão Humidade
00:00 +14°C° 0 mm 1 m/s 748 mmHg 67%
01:00 +14°C° 0 mm 1 m/s 748 mmHg 67%
02:00 +14°C° 0 mm 1 m/s 748 mmHg 68%
03:00 +14°C° 0 mm 2 m/s 748 mmHg 69%
04:00 +14°C° 0 mm 2 m/s 748 mmHg 69%
05:00 +14°C° 0 mm 2 m/s 748 mmHg 70%
06:00 +14°C° 0 mm 2 m/s 748 mmHg 68%
07:00 +14°C° 0 mm 3 m/s 748 mmHg 67%
08:00 +16°C° 0 mm 3 m/s 748 mmHg 65%
09:00 +17°C° 0 mm 3 m/s 748 mmHg 60%
10:00 +18°C° 0 mm 3 m/s 748 mmHg 55%
11:00 +20°C° 0 mm 4 m/s 748 mmHg 50%
12:00 +20°C° 0 mm 4 m/s 748 mmHg 48%
13:00 +21°C° 0 mm 4 m/s 748 mmHg 46%
14:00 +22°C° 0 mm 4 m/s 748 mmHg 44%
15:00 +21°C° 0 mm 3 m/s 748 mmHg 45%
16:00 +21°C° 0 mm 3 m/s 748 mmHg 46%
17:00 +21°C° 0 mm 3 m/s 748 mmHg 47%
18:00 +20°C° 0.1 mm 3 m/s 749 mmHg 54%
19:00 +18°C° 0.1 mm 3 m/s 749 mmHg 60%
20:00 +17°C° 0.1 mm 4 m/s 749 mmHg 66%
21:00 +17°C° 0 mm 3 m/s 749 mmHg 71%
22:00 +16°C° 0 mm 3 m/s 749 mmHg 75%
23:00 +14°C° 0 mm 3 m/s 749 mmHg 80%

Depois de amanhã, 2 Outubro, Sexta-feira

Tempo Temperatura Precipitação Vento Pressão Humidade
00:00 +14°C° 0 mm 3 m/s 749 mmHg 82%
01:00 +14°C° 0 mm 3 m/s 750 mmHg 84%
02:00 +13°C° 0 mm 3 m/s 750 mmHg 86%
03:00 +13°C° 0 mm 3 m/s 750 mmHg 86%
04:00 +13°C° 0 mm 3 m/s 750 mmHg 87%
05:00 +12°C° 0 mm 3 m/s 750 mmHg 87%
06:00 +13°C° 0 mm 3 m/s 750 mmHg 83%
07:00 +14°C° 0 mm 3 m/s 751 mmHg 78%
08:00 +16°C° 0 mm 3 m/s 751 mmHg 74%
09:00 +17°C° 0 mm 3 m/s 751 mmHg 67%
10:00 +19°C° 0 mm 4 m/s 751 mmHg 60%
11:00 +21°C° 0 mm 4 m/s 751 mmHg 53%
12:00 +22°C° 0 mm 4 m/s 751 mmHg 48%
13:00 +23°C° 0 mm 4 m/s 751 mmHg 44%
14:00 +25°C° 0 mm 4 m/s 752 mmHg 40%
15:00 +24°C° 0 mm 3 m/s 752 mmHg 41%
16:00 +24°C° 0 mm 3 m/s 752 mmHg 42%
17:00 +24°C° 0 mm 2 m/s 752 mmHg 43%
18:00 +21°C° 0 mm 2 m/s 753 mmHg 46%
19:00 +20°C° 0 mm 2 m/s 753 mmHg 49%
20:00 +19°C° 0 mm 2 m/s 754 mmHg 52%
21:00 +19°C° 0 mm 2 m/s 754 mmHg 54%
22:00 +18°C° 0 mm 2 m/s 754 mmHg 57%
23:00 +18°C° 0 mm 2 m/s 754 mmHg 59%

3 Outubro, Sábado

Tempo Temperatura Precipitação Vento Pressão Humidade
00:00 +17°C° 0 mm 2 m/s 754 mmHg 60%
01:00 +17°C° 0 mm 2 m/s 754 mmHg 61%
02:00 +17°C° 0 mm 2 m/s 754 mmHg 62%
03:00 +17°C° 0 mm 2 m/s 755 mmHg 63%
04:00 +16°C° 0 mm 2 m/s 755 mmHg 63%
05:00 +16°C° 0 mm 2 m/s 755 mmHg 64%
06:00 +17°C° 0 mm 2 m/s 755 mmHg 61%
07:00 +18°C° 0 mm 2 m/s 755 mmHg 57%
08:00 +19°C° 0 mm 2 m/s 756 mmHg 53%
09:00 +21°C° 0 mm 3 m/s 756 mmHg 49%
10:00 +25°C° 0 mm 4 m/s 756 mmHg 45%
11:00 +27°C° 0 mm 5 m/s 756 mmHg 41%
12:00 +28°C° 0 mm 5 m/s 755 mmHg 37%
13:00 +28°C° 0 mm 5 m/s 755 mmHg 34%
14:00 +29°C° 0 mm 5 m/s 755 mmHg 30%
15:00 +28°C° 0 mm 5 m/s 755 mmHg 32%
16:00 +27°C° 0 mm 5 m/s 755 mmHg 34%
17:00 +26°C° 0 mm 5 m/s 755 mmHg 36%
18:00 +24°C° 0 mm 6 m/s 755 mmHg 43%
19:00 +23°C° 0 mm 6 m/s 755 mmHg 49%
20:00 +21°C° 0 mm 7 m/s 755 mmHg 56%
21:00 +21°C° 0 mm 6 m/s 756 mmHg 60%
22:00 +20°C° 0 mm 6 m/s 756 mmHg 64%
23:00 +19°C° 0 mm 6 m/s 756 mmHg 68%

4 Outubro, Domingo

Tempo Temperatura Precipitação Vento Pressão Humidade
00:00 +19°C° 0 mm 6 m/s 756 mmHg 71%
01:00 +19°C° 0 mm 6 m/s 756 mmHg 73%
02:00 +19°C° 0 mm 6 m/s 756 mmHg 75%
03:00 +17°C° 0 mm 6 m/s 756 mmHg 77%
04:00 +17°C° 0 mm 6 m/s 756 mmHg 79%
05:00 +17°C° 0 mm 6 m/s 755 mmHg 81%
06:00 +19°C° 0 mm 6 m/s 756 mmHg 80%
07:00 +18°C° 0 mm 7 m/s 756 mmHg 78%
08:00 +20°C° 0 mm 7 m/s 756 mmHg 76%
09:00 +22°C° 0 mm 7 m/s 756 mmHg 66%
10:00 +24°C° 0 mm 8 m/s 756 mmHg 56%
11:00 +27°C° 0 mm 8 m/s 756 mmHg 45%
12:00 +28°C° 0 mm 8 m/s 756 mmHg 43%
13:00 +28°C° 0 mm 8 m/s 756 mmHg 40%
14:00 +29°C° 0 mm 9 m/s 755 mmHg 38%
15:00 +28°C° 0 mm 8 m/s 755 mmHg 42%
16:00 +27°C° 0 mm 7 m/s 755 mmHg 45%
17:00 +26°C° 0 mm 7 m/s 755 mmHg 49%
18:00 +23°C° 0 mm 7 m/s 755 mmHg 58%
19:00 +22°C° 0 mm 7 m/s 755 mmHg 67%
20:00 +20°C° 0 mm 7 m/s 756 mmHg 77%
21:00 +20°C° 0 mm 7 m/s 756 mmHg 81%
22:00 +20°C° 0 mm 7 m/s 756 mmHg 85%
23:00 +18°C° 0 mm 7 m/s 756 mmHg 89%

5 Outubro, Segunda-feira

Tempo Temperatura Precipitação Vento Pressão Humidade
00:00 +18°C° 0 mm 7 m/s 756 mmHg 89%
01:00 +18°C° 0 mm 7 m/s 756 mmHg 90%
02:00 +19°C° 0 mm 6 m/s 755 mmHg 90%
03:00 +18°C° 0 mm 7 m/s 755 mmHg 91%
04:00 +18°C° 0 mm 7 m/s 755 mmHg 91%
05:00 +18°C° 0 mm 7 m/s 755 mmHg 92%
06:00 +20°C° 0 mm 7 m/s 755 mmHg 88%
07:00 +20°C° 0 mm 7 m/s 755 mmHg 85%
08:00 +21°C° 0 mm 8 m/s 755 mmHg 81%
09:00 +23°C° 0 mm 8 m/s 755 mmHg 71%
10:00 +24°C° 0 mm 8 m/s 755 mmHg 61%
11:00 +27°C° 0 mm 9 m/s 755 mmHg 51%
12:00 +28°C° 0 mm 9 m/s 755 mmHg 48%
13:00 +29°C° 0 mm 9 m/s 755 mmHg 45%
14:00 +29°C° 0 mm 9 m/s 755 mmHg 42%
15:00 +28°C° 0 mm 9 m/s 755 mmHg 47%
16:00 +27°C° 0 mm 8 m/s 755 mmHg 53%
17:00 +26°C° 0 mm 8 m/s 755 mmHg 58%
18:00 +23°C° 0 mm 7 m/s 755 mmHg 65%
19:00 +22°C° 0 mm 7 m/s 755 mmHg 72%
20:00 +21°C° 0 mm 6 m/s 755 mmHg 80%
21:00 +21°C° 0 mm 6 m/s 755 mmHg 82%
22:00 +20°C° 0 mm 6 m/s 755 mmHg 84%
23:00 +20°C° 0 mm 6 m/s 755 mmHg 86%
Mostrar mais